Flag for U.S.A. Weather past 2 weeks in Bakersfield, California, U.S.A.

Now
103 °F

Sunny.


Feels Like: 100 °F
Forecast: 82 / 102 °F
Wind: 9 mph from West

Location: Meadows Field

Current Time: Jun 30, 2015 at 7:36:28 PM

Latest Report: Jun 30, 2015 at 6:54 PM


Visibility: 10 mi

Pressure: 29.73 "Hg

Humidity: 17%

Dew point: 50 °F

Location of BakersfieldLocation

Historic Weather in Bakersfield — Graph

°F

Bakersfield temperature yesterday

Maximum temperature yesterday: 96 °F (at 5:54 PM)
Minimum temperature yesterday: 74 °F (at 5:54 AM)
Average temperature yesterday: 86 °F

Past Weeks' High & Low Weather Summary

 TemperatureHumidityPressure
High105 °F (Jun 26, 5:54 PM)60% (Jun 29, 5:54 AM)29.99 "Hg (Jun 29, 5:54 AM)
Low66 °F (Jun 22, 5:54 AM)5% (Jun 21, 4:54 PM)29.71 "Hg (Jun 15, 5:54 PM)
Average86 °F23%29.85 "Hg
* Reported Jun 15 5:54 PM — Jun 30 5:54 PM, Bakersfield, Weather by CustomWeather, © 2015

Note: Actual official high and low records may vary slightly from our data, if they occured in-between our weather recording intervals... More about our weather records

Advertising

Bakersfield weather history for previous 24 hours

 ConditionsComfort  
Time TempWeatherWind HumidityBarometerVisibility
5:54 PM
Tue, Jun 30
103 °FSunny.10 mph17%29.74 "Hg10 mi
4:54 PM104 °FSunny.12 mph16%29.74 "Hg10 mi
3:54 PM104 °FSunny.9 mph18%29.74 "Hg10 mi
2:54 PM103 °FSunny.9 mph20%29.76 "Hg10 mi
1:54 PM100 °FSunny.14 mph23%29.78 "Hg10 mi
12:54 PM99 °FSunny.9 mph24%29.81 "Hg10 mi
11:54 AM97 °FSunny.8 mph26%29.83 "Hg10 mi
10:54 AM94 °FSunny.6 mph29%29.83 "Hg10 mi
9:54 AM91 °FSunny.5 mph32%29.84 "Hg10 mi
8:54 AM87 °FSunny.6 mph35%29.86 "Hg10 mi
7:54 AM83 °FSunny.7 mph43%29.86 "Hg10 mi
6:54 AM83 °FSunny.7 mph40%29.85 "Hg10 mi
5:54 AM82 °FClear.7 mph43%29.84 "Hg10 mi
4:54 AM82 °FClear.No wind43%29.83 "Hg10 mi
3:54 AM84 °FClear.No wind40%29.83 "Hg10 mi
2:54 AM84 °FClear.3 mph38%29.84 "Hg10 mi
1:54 AM86 °FClear.No wind36%29.84 "Hg10 mi
12:54 AM88 °FClear.No wind34%29.85 "Hg10 mi
11:54 PM
Mon, Jun 29
89 °FClear.5 mph32%29.85 "Hg10 mi
10:54 PM90 °FClear.No wind31%29.86 "Hg10 mi
9:54 PM90 °FClear.No wind31%29.85 "Hg10 mi
8:54 PM93 °FSunny.No wind29%29.83 "Hg10 mi
7:54 PM94 °FSunny.6 mph27%29.82 "Hg10 mi
Weather by CustomWeather, © 2015

See weather overviewHow to use our weather pages